Date String (YYYY-MM-DD hh:mm:ss) UTC,Instrument flags,absolute air pressure of the measurement (hPa),sample flow rate (lpm),inlet stack bypass flow (lpm),air temperature of the measurement (°C),ambient temperature measured by the external sensor (°C),aerosol sample conditioner tube jacket temperature (°C),OPC LED temperature (°C),internal box temperature (°C),relative humidity of the measurement (%),span deviation,mass concentration of particles derived from Lorenz-Mie calculation of OPC scattering (μg/m³),mass concentration of particles derived from Lorenz-Mie calculation of OPC scattering (μg/m³),mass concentration of particles derived from Lorenz-Mie calculation of OPC scattering (μg/m³)
DateTimeUTC,F1_M11,P_M11,Q1_M11,Q2_M11,T1_M11,T2_M11,T3_M11,T4_M11,T5_M11,U1_M11,ZSPAN_M11,X0_M11,X2_M11,X1_M11
2024-06-08 10:00:00,SystemResetWarning,0828.4,4.99,000.00,030.7,030.1,000.0,038.9,032.4,022.5,0000.0,0024.00,0004.80,0003.13
2024-06-08 10:01:00,SystemResetWarning,0828.4,4.99,000.00,030.7,030.1,000.0,038.9,032.4,022.4,0000.0,0024.21,0004.85,0003.14
2024-06-08 10:02:00,SystemResetWarning,0828.4,5.00,000.00,030.7,030.2,000.0,039.0,032.5,022.4,0000.0,0023.69,0004.88,0003.16
2024-06-08 10:03:00,SystemResetWarning,0828.5,5.01,000.00,030.8,030.2,000.0,039.0,032.5,022.2,0000.0,0025.03,0004.93,0003.18
2024-06-08 10:04:00,SystemResetWarning,0828.5,4.99,000.00,030.7,029.7,000.0,039.0,032.2,021.9,0000.0,0026.68,0004.96,0003.19
2024-06-08 10:05:00,SystemResetWarning,0828.4,4.99,000.00,030.4,027.2,000.0,039.0,031.0,022.4,0000.0,0026.18,0004.99,0003.21
2024-06-08 10:06:00,SystemResetWarning,0828.4,5.02,000.00,030.0,026.4,000.0,039.0,030.6,023.0,0000.0,0025.07,0004.98,0003.21
2024-06-08 10:07:00,SystemResetWarning,0828.5,4.99,000.00,029.8,026.7,000.0,038.9,030.7,023.3,0000.0,0024.35,0004.94,0003.21
2024-06-08 10:08:00,SystemResetWarning,0828.6,5.00,000.00,029.8,027.2,000.0,038.7,030.9,023.2,0000.0,0025.17,0004.93,0003.22
2024-06-08 10:09:00,SystemResetWarning,0828.6,5.00,000.00,029.8,027.6,000.0,038.6,031.1,022.6,0000.0,0025.40,0004.97,0003.23
2024-06-08 10:10:00,SystemResetWarning,0828.6,4.99,000.00,029.8,028.0,000.0,038.6,031.2,022.3,0000.0,0024.21,0004.94,0003.23
2024-06-08 10:11:00,SystemResetWarning,0828.6,5.00,000.00,029.8,028.3,000.0,038.5,031.3,022.5,0000.0,0023.14,0004.92,0003.23
2024-06-08 10:12:00,SystemResetWarning,0828.6,5.00,000.00,029.8,028.5,000.0,038.5,031.4,022.3,0000.0,0022.47,0004.86,0003.23
2024-06-08 10:13:00,SystemResetWarning,0828.6,5.00,000.00,029.9,028.7,000.0,038.4,031.5,022.1,0000.0,0022.98,0004.80,0003.22
2024-06-08 10:14:00,SystemResetWarning,0828.7,5.00,000.00,029.9,028.9,000.0,038.4,031.6,022.0,0000.0,0021.27,0004.69,0003.20
2024-06-08 10:15:00,SystemResetWarning,0828.6,4.99,000.00,029.9,029.0,000.0,038.4,031.6,022.1,0000.0,0018.41,0004.59,0003.19
2024-06-08 10:16:00,SystemResetWarning,0828.7,5.00,000.00,030.0,029.1,000.0,038.4,031.7,022.0,0000.0,0018.14,0004.53,0003.17
2024-06-08 10:17:00,SystemResetWarning,0828.7,5.00,000.00,030.0,029.2,000.0,038.4,031.7,021.9,0000.0,0019.38,0004.41,0003.16
2024-06-08 10:18:00,SystemResetWarning,0828.7,5.01,000.00,030.0,029.3,000.0,038.4,031.8,021.7,0000.0,0019.30,0004.33,0003.14
2024-06-08 10:19:00,SystemResetWarning,0828.6,5.00,000.00,030.1,029.4,000.0,038.4,031.8,021.3,0000.0,0017.39,0004.26,0003.13
2024-06-08 10:20:00,SystemResetWarning,0828.7,5.00,000.00,030.1,029.5,000.0,038.4,031.9,021.1,0000.0,0014.97,0004.12,0003.10
2024-06-08 10:21:00,SystemResetWarning,0828.7,4.99,000.00,030.2,029.5,000.0,038.5,031.9,020.9,0000.0,0014.44,0004.08,0003.10
2024-06-08 10:22:00,SystemResetWarning,0828.7,4.99,000.00,030.2,029.6,000.0,038.5,031.9,020.9,0000.0,0014.50,0004.04,0003.09
2024-06-08 10:23:00,SystemResetWarning,0828.7,4.99,000.00,030.2,029.6,000.0,038.5,032.0,020.8,0000.0,0014.66,0004.00,0003.06
2024-06-08 10:24:00,SystemResetWarning,0828.7,5.00,000.00,030.3,029.7,000.0,038.5,032.0,020.8,0000.0,0013.87,0003.98,0003.06
2024-06-08 10:25:00,SystemResetWarning,0828.7,5.01,000.00,030.3,029.7,000.0,038.5,032.0,020.8,0000.0,0013.26,0003.97,0003.05
2024-06-08 10:26:00,SystemResetWarning,0828.7,5.00,000.00,030.3,029.7,000.0,038.6,032.0,020.8,0000.0,0013.52,0003.96,0003.03
2024-06-08 10:27:00,SystemResetWarning,0828.7,4.99,000.00,030.4,029.8,000.0,038.6,032.0,020.7,0000.0,0012.94,0003.89,0003.03
2024-06-08 10:28:00,SystemResetWarning,0828.7,5.00,000.00,030.4,029.8,000.0,038.6,032.1,020.7,0000.0,0011.55,0003.86,0003.03
2024-06-08 10:29:00,SystemResetWarning,0828.7,4.99,000.00,030.4,029.8,000.0,038.6,032.1,020.6,0000.0,0011.13,0003.86,0003.04
2024-06-08 10:30:00,SystemResetWarning,0828.7,5.00,000.00,030.4,029.9,000.0,038.7,032.1,020.6,0000.0,0011.20,0003.88,0003.04
2024-06-08 10:31:00,SystemResetWarning,0828.8,5.02,000.00,030.5,029.9,000.0,038.7,032.2,020.6,0000.0,0012.36,0003.85,0003.05
2024-06-08 10:32:00,SystemResetWarning,0828.8,5.01,000.00,030.5,029.9,000.0,038.7,032.2,020.6,0000.0,0013.77,0003.84,0003.06
2024-06-08 10:33:00,SystemResetWarning,0828.8,4.99,000.00,030.5,030.0,000.0,038.7,032.2,020.7,0000.0,0014.08,0003.82,0003.05
2024-06-08 10:34:00,SystemResetWarning,0828.7,4.99,000.00,030.6,030.0,000.0,038.8,032.3,020.7,0000.0,0014.73,0003.80,0003.06
2024-06-08 10:35:00,SystemResetWarning,0828.8,5.02,000.00,030.6,030.0,000.0,038.8,032.3,020.6,0000.0,0016.20,0003.84,0003.06
2024-06-08 10:36:00,SystemResetWarning,0828.8,4.99,000.00,030.6,030.1,000.0,038.8,032.3,020.6,0000.0,0016.83,0003.87,0003.07
2024-06-08 10:37:00,SystemResetWarning,0828.9,4.99,000.00,030.6,030.1,000.0,038.8,032.3,020.6,0000.0,0016.88,0003.90,0003.08
2024-06-08 10:38:00,SystemResetWarning,0828.9,4.99,000.00,030.7,030.1,000.0,038.9,032.4,020.6,0000.0,0017.13,0003.92,0003.09
2024-06-08 10:39:00,SystemResetWarning,0828.9,5.01,000.00,030.7,030.1,000.0,038.9,032.4,020.6,0000.0,0017.43,0003.92,0003.09
2024-06-08 10:40:00,SystemResetWarning,0829.0,5.01,000.00,030.7,030.1,000.0,038.9,032.4,020.6,0000.0,0017.06,0003.93,0003.10
2024-06-08 10:41:00,SystemResetWarning,0829.0,5.00,000.00,030.7,030.2,000.0,038.9,032.4,020.5,0000.0,0017.05,0003.91,0003.10
2024-06-08 10:42:00,SystemResetWarning,0829.0,5.00,000.00,030.8,030.1,000.0,039.0,032.4,020.5,0000.0,0016.09,0003.95,0003.11
2024-06-08 10:43:00,SystemResetWarning,0828.8,4.98,000.00,030.6,028.3,000.0,039.0,031.5,020.7,0000.0,0016.06,0003.99,0003.11
2024-06-08 10:44:00,SystemResetWarning,0828.7,5.02,000.00,030.1,026.6,000.0,039.0,030.7,021.1,0000.0,0016.70,0004.01,0003.12
2024-06-08 10:45:00,SystemResetWarning,0828.7,5.00,000.00,029.9,026.7,000.0,038.9,030.6,021.3,0000.0,0015.97,0004.03,0003.13
2024-06-08 10:46:00,SystemResetWarning,0828.7,5.00,000.00,029.8,027.1,000.0,038.8,030.8,021.4,0000.0,0014.89,0004.05,0003.13
2024-06-08 10:47:00,SystemResetWarning,0828.8,4.99,000.00,029.8,027.5,000.0,038.7,031.0,021.4,0000.0,0014.51,0004.05,0003.14
2024-06-08 10:48:00,SystemResetWarning,0828.7,5.00,000.00,029.8,027.9,000.0,038.6,031.2,021.4,0000.0,0014.94,0004.03,0003.15
2024-06-08 10:49:00,SystemResetWarning,0828.7,5.00,000.00,029.8,028.2,000.0,038.5,031.3,021.4,0000.0,0015.62,0004.09,0003.15
2024-06-08 10:50:00,SystemResetWarning,0828.7,5.00,000.00,029.8,028.4,000.0,038.5,031.4,021.3,0000.0,0015.90,0004.14,0003.16
2024-06-08 10:51:00,SystemResetWarning,0828.7,5.00,000.00,029.8,028.7,000.0,038.4,031.5,021.4,0000.0,0017.52,0004.13,0003.15
2024-06-08 10:52:00,SystemResetWarning,0828.7,4.99,000.00,029.9,028.8,000.0,038.4,031.6,021.4,0000.0,0017.90,0004.15,0003.14
2024-06-08 10:53:00,SystemResetWarning,0828.6,5.00,000.00,029.9,029.0,000.0,038.4,031.6,021.4,0000.0,0017.85,0004.13,0003.14
2024-06-08 10:54:00,SystemResetWarning,0828.6,4.99,000.00,030.0,029.1,000.0,038.4,031.7,021.3,0000.0,0017.90,0004.10,0003.14
2024-06-08 10:55:00,SystemResetWarning,0828.6,5.00,000.00,030.0,029.2,000.0,038.4,031.7,021.3,0000.0,0017.94,0004.08,0003.13
2024-06-08 10:56:00,SystemResetWarning,0828.6,5.00,000.00,030.0,029.3,000.0,038.4,031.8,021.3,0000.0,0018.13,0004.09,0003.14
2024-06-08 10:57:00,SystemResetWarning,0828.6,5.00,000.00,030.1,029.4,000.0,038.5,031.8,021.4,0000.0,0017.99,0004.09,0003.14
2024-06-08 10:58:00,SystemResetWarning,0828.6,5.00,000.00,030.1,029.5,000.0,038.5,031.9,021.4,0000.0,0018.58,0004.08,0003.14
2024-06-08 10:59:00,SystemResetWarning,0828.6,5.00,000.00,030.2,029.5,000.0,038.5,031.9,021.4,0000.0,0020.03,0004.16,0003.15
